Weather in Simrishamn

Sweden     55°33′33″N   14°20′37″E
temp.,
°C
wind,
m/s
gust,
m/s
humid.,
%
clouds,
%
prec.,
mm/h
press.,
hPa
HPBL,
m
8 may, sat
sat823:00+4wnw338226 0.0 101162
02:00+4w358613 0.0 1011123
05:00+3w48915 0.0 1012168
08:00+6w69879 0.0 1013551
11:00+8w787037 0.4 1014895
14:00+9wsw9106450 0.9 10151181
17:00+8sw8107043 0.0 1015688
20:00+6sw4779100 0.0 1015140
9 may, sun
sun923:00+6s5776100 0.0 1015135
02:00+7sse71476100 0.0 1013330
05:00+6sse81493100 0.8 1011498
08:00+7s91491100 1.9 1010497
11:00+9ssw7118855 0.0 1009294
14:00+11ssw61087100 0.0 1009278
17:00+12ssw588597 0.0 1009146
20:00+11s4885100 0.0 100996
10 may, mon
mon1023:00+12sse71579100 0.0 1008175
02:00+10s71686100 0.0 1008179
05:00+10s71789100 0.0 1007223
08:00+10s81687100 0.0 1008253
11:00+11s51084100 0.0 1009210
14:00+12se51081100 0.0 1009256
17:00+12sse510815 0.0 1008192
20:00+11sse498452 0.0 1008105
11 may, tue
tue1123:00+11w59928 0.0 1009102
02:00+10nnw359774 0.0 101078
05:00+10n589874 0.0 1010107
08:00+10ne6896100 0.0 1009153
11:00+11ne339049 0.0 1008184
14:00+12ene228981 0.0 1008270
17:00+12ne4492100 0.0 1007141
20:00+11nne3494100 0.0 100756
12 may, wed
wed1223:00+10nne2391100 0.0 100743
02:00+10nne3391100 0.2 100644
05:00+10ne2396100 0.4 100649
08:00+11e349422 0.8 100596
11:00+11ese459673 0.0 1005172
14:00+12e349673 0.1 1006158
17:00+11e1195100 0.0 1006106
20:00+11wsw3397100 0.8 100785